Home   Weather   West Kirby   Past weeks
Flag for United Kingdom

Past Weather in West Kirby, England, United Kingdom — Yesterday and Last 2 Weeks

Now
59 °F

Passing clouds.


Feels Like: 56 °F
Forecast: 60 / 54 °F
Wind: 15 mph from Northwest

Location: Liverpool Airport

Current Time: Jul 10, 2020 at 8:30:10 pm

Latest Report: Jul 10, 2020 at 7:50 pm


Visibility: N/A

Pressure: 30.18 "Hg

Humidity: 68%

Dew Point: 48 °F

Location of West KirbyLocation

Past Weather in West Kirby — Graph

°F

West Kirby Temperature Yesterday

Maximum temperature yesterday: 61 °F (at 11:50 am)
Minimum temperature yesterday: 54 °F (at 6:20 am)
Average temperature yesterday: 57 °F

High & Low Weather Summary for the Past Weeks

 TemperatureHumidityPressure
High84 °F (Jun 25, 6:20 pm)100% (Jun 27, 4:50 am)30.21 "Hg (Jun 27, 4:50 am)
Low54 °F (Jun 28, 2:20 am)45% (Jun 25, 6:20 pm)29.45 "Hg (Jun 27, 12:50 pm)
Average60 °F81%29.79 "Hg
* Reported Jun 25 6:20 pm — Jul 10 6:50 pm, West Kirby. Weather by CustomWeather, © 2020

Note: Actual official high and low records may vary slightly from our data, if they occured in-between our weather recording intervals... More about our weather records

West Kirby Weather History for the Previous 24 Hours

Scroll right to see more
 ConditionsComfort  
Time TempWeatherWind HumidityBarometerVisibility
6:50 pm
Fri, Jul 10
61 °FPassing clouds.17 mph63%30.15 "HgN/A
6:20 pm61 °FPassing clouds.20 mph63%30.15 "HgN/A
5:50 pm61 °FPassing clouds.20 mph63%30.15 "HgN/A
5:20 pm61 °FScattered clouds.20 mph63%30.15 "HgN/A
4:50 pm61 °FScattered clouds.20 mph63%30.15 "HgN/A
4:20 pm63 °FScattered clouds.22 mph59%30.15 "HgN/A
3:50 pm63 °FPartly sunny.21 mph64%30.12 "HgN/A
3:20 pm61 °FPartly sunny.21 mph68%30.12 "HgN/A
2:50 pm61 °FPartly sunny.17 mph68%30.12 "HgN/A
2:20 pm61 °FPartly sunny.20 mph63%30.12 "HgN/A
1:50 pm59 °FPartly sunny.21 mph72%30.12 "HgN/A
12:50 pm59 °FPartly sunny.20 mph72%30.09 "HgN/A
12:20 pm57 °FPartly sunny.20 mph72%30.09 "HgN/A
11:50 am57 °FPartly sunny.21 mph72%30.09 "HgN/A
11:20 am57 °FPartly sunny.21 mph72%30.07 "HgN/A
10:50 am57 °FPartly sunny.18 mph72%30.07 "HgN/A
10:20 am57 °FPartly sunny.20 mph72%30.07 "HgN/A
9:50 am57 °FPartly sunny.18 mph72%30.04 "HgN/A
9:20 am57 °FScattered clouds.21 mph72%30.04 "HgN/A
8:50 am57 °FScattered clouds.17 mph72%30.04 "HgN/A
8:20 am57 °FScattered clouds.15 mph72%30.04 "HgN/A
7:50 am57 °FScattered clouds.16 mph72%30.01 "HgN/A
7:20 am55 °FBroken clouds.15 mph77%30.01 "HgN/A
6:50 am55 °FSprinkles. Scattered clouds.13 mph82%30.01 "HgN/A
6:20 am55 °FSprinkles. Scattered clouds.12 mph77%30.01 "HgN/A
5:50 am54 °FScattered clouds.10 mph82%30.01 "HgN/A
5:20 am54 °FScattered clouds.13 mph82%29.98 "HgN/A
4:50 am54 °FPartly cloudy.15 mph82%29.98 "HgN/A
4:20 am54 °FPassing clouds.14 mph82%29.98 "HgN/A
3:50 am54 °FPassing clouds.15 mph88%29.98 "HgN/A
3:20 am55 °FPassing clouds.14 mph82%29.98 "HgN/A
2:50 am55 °FMostly cloudy.12 mph82%29.98 "HgN/A
2:20 am54 °FPassing clouds.8 mph88%29.98 "HgN/A
1:50 am54 °FCool.9 mph88%29.98 "HgN/A
1:20 am55 °FCool.7 mph82%29.98 "HgN/A
12:50 am55 °FPassing clouds.13 mph88%29.98 "HgN/A
12:20 am57 °FPassing clouds.10 mph88%29.98 "HgN/A
11:50 pm
Thu, Jul 9
57 °FMostly cloudy.9 mph94%29.98 "HgN/A
11:20 pm55 °FPartly cloudy.7 mph100%29.98 "HgN/A
10:50 pm55 °FMostly cloudy.5 mph94%29.98 "HgN/A
10:20 pm55 °FRain. Partly cloudy.9 mph94%29.98 "Hg1 mi
9:50 pm55 °FRain. Mostly cloudy.8 mph94%29.95 "Hg4 mi
9:20 pm57 °FPartly sunny.5 mph82%29.95 "HgN/A
8:50 pm57 °FPartly sunny.5 mph82%29.95 "HgN/A
8:20 pm57 °FPartly sunny.7 mph88%29.95 "HgN/A
Weather by CustomWeather, © 2020

See weather overview